Regional Weather Roundup
Issued by NWS

Home | Current Version | Previous Version | Text Only | Print | Product List | Glossary On
Versions: 1 2 3 4 5 6 7 8 9 10 11 12 13 14 15 16 17 18 19 20 21 22 23 24 25 26 27 28 29 30 31 32 33 34 35 36 37 38 39 40 41 42 43 44 45 46 47 48 49 50
000
ASUS44 KEWX 210510
RWRTX
SOUTH TEXAS REGIONAL WEATHER ROUNDUP
NATIONAL WEATHER SERVICE AUSTIN/SAN ANTONIO TX
1200 AM CDT THU AUG 21 2014

NOTE: "FAIR" INDICATED FEW OR NO CLOUDS BELOW 12,000 FEET WITH NO
SIGNIFICANT WEATHER AND/OR OBSTRUCTIONS TO VISIBILITY.

* - THESE STATIONS ARE NOT NWS OR FAA STATIONS...AND ARE NOT SUBJECT
    TO NWS AND FAA QUALITY CONTROL.

TXZ171-172-183>190-210600-
TEXAS HILL COUNTRY AND EDWARDS PLATEAU

CITY           SKY/WX    TMP DP  RH WIND       PRES   REMARKS
JUNCTION       CLEAR     82  70  66 SE12      29.99R
*LLANO         CLEAR     86  72  62 S9        30.01R HX  92
BURNET         CLEAR     82  71  69 S13G20    30.03R
*HORSESHOE BAY CLEAR     83  69  62 S9G18     29.99S
*KERRVILLE     CLEAR     79  71  75 SE12      30.02S
*FREDERICKSBRG CLEAR     80  68  66 S8        30.02R
*ROCKSPRINGS   CLEAR     81  70  69 SE13G23   30.05R
*BOERNE STAGE  CLEAR     79  68  69 SE9G20    30.03R
*CASTROVILLE   CLEAR     83  70  65 SE9       30.00R
HONDO          CLEAR     82  72  71 SE12      30.00R
*UVALDE        MOCLDY    85  74  69 S17       29.98R HX  93
DEL RIO        MOCLDY    89  67  47 SE12      29.90R HX  92
LAUGHLIN AFB   PTCLDY    85  67  55 SE15      29.92R
CARRIZO SPRGS  CLEAR     86  70  58 SE16G23   29.92R HX  90
$$

TXZ173-191>194-202-209-217>225-228-210600-
CENTRAL AND SOUTH CENTRAL TEXAS

CITY           SKY/WX    TMP DP  RH WIND       PRES   REMARKS
GEORGETOWN     CLEAR     84  72  65 S10G21    30.01R
AUSTIN/BERGSTM PTCLDY    82  72  71 S13       30.00R
AUSTIN/MABRY   CLEAR     83  72  69 S10G23    30.00S
*AUSTIN/EXEC     N/A     82  72  69 S9G22     30.01S
*LAGO VISTA    CLEAR     82  70  68 S10G22    30.03R
SAN MARCOS     CLEAR     82  70  65 S15       30.02R
NEW BRAUNFELS  CLEAR     82  72  71 S10       29.99R
RANDOLPH AFB   CLEAR     81  71  72 SE15G22   30.00R
PT SAN ANTONIO CLEAR     83  71  68 SE16      29.97R
SAN ANTONIO    PTCLDY    83  71  67 SE14      30.00R
STINSON FIELD  CLEAR     83  71  67 SE14      29.97R
*PLEASANTON    CLEAR     82  71  68 SE10G20   29.98R
*LA GRANGE     CLEAR     83  77  82 S7        29.99S HX  92
*GIDDINGS      CLEAR     82  73  74 S9G16     30.04S
*GONZALES      PTCLDY    82  76  81 SE9       29.99S HX  90
$$

TXZ163>164-176>182-195>201-210>213-226-227-235-210600-
SOUTHEAST TEXAS

CITY           SKY/WX    TMP DP  RH WIND       PRES   REMARKS
COLLEGE STN    CLEAR     82  74  76 S12       30.00S
*BRYAN         CLEAR     81  75  81 S12G17    30.00S
*CALDWELL      CLEAR     81  75  83 SE12G18   30.03R
*CROCKETT        N/A    N/A N/A N/A MISG        N/A
*BRENHAM       CLEAR     83  76  79 S7        30.01S HX  91
HUNTSVILLE     CLEAR     80  75  84 S9        30.02S
CONROE         PTCLDY    75  74  96 CALM      30.03S
HOUSTON BUSH   PTCLDY    83  78  85 S7        30.02S HX  93
HOUSTON HOBBY  PTCLDY    81  77  88 S6        30.02R
*HOUSTON SW AP CLEAR     79  77  93 MISG      30.02S
PEARLAND       CLEAR     83  77  82 S5        30.03S HX  92
HOUSTON HOOKS  CLEAR     82  78  88 S5        30.02R HX  91
ELLINGTON FLD  PTCLDY    82  77  83 S6        30.03S HX  91
SUGAR LAND     CLEAR     82  78  88 S9        30.01F HX  91
*HOUSTON EXEC  CLEAR     81  79  94 SE7       30.02F
*CLEVELAND MUN CLEAR     75  74  98 CALM      30.04R FOG
*WHARTON       CLEAR     80  76  89 SE7       30.02S
$$

TXZ214>216-236>238-210600-
THE UPPER TEXAS COAST

CITY           SKY/WX    TMP DP  RH WIND       PRES   REMARKS
*ORANGE        MOCLDY    84  78  82 S8        30.04R HX  95
PORT ARTHUR    MOCLDY    83  78  85 S8        30.03R HX  93
GALVESTON      PTCLDY    85  79  82 S16       30.04R HX  98
ANGLETON       CLEAR     81  77  88 S8        30.02S
*BAY CITY      CLEAR     83  80  92 SE6       30.02S HX  96
PALACIOS       PTCLDY    85  79  82 SE16G23   30.01S HX  98
$$

TXZ229>234-239>247-210600-
TEXAS COASTAL BEND AND RIO GRANDE PLAINS

CITY           SKY/WX    TMP DP  RH WIND       PRES   REMARKS
VICTORIA       CLEAR     83  78  85 SE10      30.01R HX  93
*BEEVILLE      MOCLDY    83  77  80 SE12G17   29.99R HX  92
ROCKPORT       LGT RAIN  85  80  85 SE16      29.98S HX  99
*PORT ARANSAS  CLEAR     83  79  89 SE13      29.99R HX  94
*PORT LAVACA   CLEAR     82  78  86 SE9       30.00S HX  92
*INGLESIDE     CLEAR     85  78  79 SE15      29.98S HX  98
CORPUS CHRISTI MOCLDY    84  79  85 SE21G31   29.98R HX  96
CORPUS NAS     CLEAR     84  81  90 SE20      29.98R HX  99
*ROBSTOWN      NOT AVBL
ALICE          MOCLDY    84  78  82 S17G28    29.98R HX  95
KINGSVILLE NAS MOCLDY    85  81  88 S15G24    29.98R HX 100
COTULLA        CLEAR     86  73  65 SE21G28   29.96R HX  93
*FAITH RANCH     N/A     86  70  58 SE17G24   29.93R HX  90
LAREDO         CLEAR     88  72  58 SE23G29   29.96R HX  94
$$

TXZ248>255-210600-
DEEP SOUTH TEXAS

CITY           SKY/WX    TMP DP  RH WIND       PRES   REMARKS
BROWNSVILLE    PTCLDY    83  79  88 SE16      30.00R HX  94
PORT ISABEL    CLEAR     85  78  80 SE17      29.99R HX  96
*SOUTH PADRE     N/A     81  79  94 S12       30.00S
HARLINGEN      PTCLDY    84  78  82 S15G23    29.98R HX  95
*HEBBRONVILLE  PTCLDY    83  73  70 SE16G22   29.99R
MCALLEN        PTCLDY    85  77  77 SE15      29.98R HX  95
*WESLACO       MOCLDY    85  75  74 S16G23    29.98S HX  93
FALFURRIAS     PTCLDY    89  73  60 SE14      29.98R HX  97
EDINBURG       PTCLDY    87  75  68 S18G30    29.98S HX  96
*ZAPATA        PTCLDY    85  72  64 SE13G23   29.94S HX  91
$$

TXZ213>215-236>238-242>244-246-247-251-254-255-210600-
CMAN STATIONS

STATION/POSITION TIME  TEMP    WIND        PRES    WAVE
                       AIR SEA DIR/SP/G            HT/PER
                 (UTC) (F)     (DEG/KT/KT) (MB)    (FT/S)
SABINE PASS      0500   85 87  190/ 12/ 16 1016.9
SEA RIM ST PARK  0500   85     180/ 13/ 16 1017.5
NORTH JETTY/GLS  0500   86 88  200/ 18/ 21   N/A
EAGLE POINT      0500   86 87  180/ 15/ 18 1016.7
MORGANS POINT    0500   85     180/ 11/ 16 1016.7
MISSION/ARANSAS  0400   83     130/ 16     1016.0
PORT O`CONNOR    0500          140/ 15/ 19   N/A
PORT ARANSAS     0500   84 85  130/ 17/ 18 1016.0
MALAQUITE BEACH  0500   82 81  130/ 16/ 18 1014.8
BAFFIN BAY       0500   83 84  140/ 14/ 18 1015.4
PORT ISABEL      0500   83 81  140/ 10/ 13 1016.3
$$

GMZ080-GMZ150>470-210600-
OFFSHORE BUOY REPORTS

STATION/POSITION TIME  TEMP    WIND        PRES    WAVE
                       AIR SEA DIR/SP/G            HT/PER
                 (UTC) (F)     (DEG/KT/KT) (MB)    (FT/S)
90 E PT ARANSAS  0500   85 85  150/ 12/ 16 1016.8    3/ 6
35 NE PT MANSFLD 0500   85 86  150/ 19/ 23 1015.1    4/ 6
200 E PT ISABEL  0500   86 86  160/ 14/ 16 1017.5    3/ 6
$$


USA.gov is the U.S. government's official web portal to all federal, state and local government web resources and services.